JA0BES-13 Weather Reports


Display with metric or nautical units.
time (UTC)temp
F
wind
direction
speed
MPH
gust
MPH
rain 1hr
in
rain 24hr
in
rain mn
in
humidity
%
barometer
mb
20260505060507 70 234 1.0 3.0 0.00 0.00 0.00 31 1015.5
20260505055507 70 225 0.0 1.0 0.00 0.00 0.00 33 1015.7
20260505054506 70 204 0.0 1.0 0.00 0.00 0.00 35 1015.8
20260505053507 70 247 2.0 2.0 0.00 0.00 0.00 35 1015.8
20260505052506 70 225 1.0 2.0 0.00 0.00 0.00 35 1016.1
20260505051506 70 198 0.0 2.0 0.00 0.00 0.00 35 1016.3
20260505050505 69 270 0.0 2.0 0.00 0.00 0.00 38 1016.5
20260505041504 69 180 0.0 0.0 0.00 0.00 0.00 43 1017.3
20260505040503 68 225 0.0 1.0 0.00 0.00 0.00 43 1017.4
20260505035503 68 130 1.0 1.0 0.00 0.00 0.00 44 1017.5
20260505034502 67 225 0.0 1.0 0.00 0.00 0.00 45 1017.8
20260505033502 66 225 0.0 2.0 0.00 0.00 0.00 42 1017.9
20260505032502 65 167 0.0 1.0 0.00 0.00 0.00 44 1017.9
20260505031501 64 195 0.0 2.0 0.00 0.00 0.00 44 1017.9
20260505030501 63 99 3.0 3.0 0.00 0.00 0.00 42 1017.9
20260505025501 63 225 1.0 4.0 0.00 0.00 0.00 41 1018.1
20260505024500 64 243 2.0 2.0 0.00 0.00 0.00 43 1018.4
20260505023500 64 225 0.0 2.0 0.00 0.00 0.00 46 1018.3
20260505022459 62 225 0.0 2.0 0.00 0.00 0.00 45 1018.5
20260505021459 62 211 0.0 1.0 0.00 0.00 0.00 45 1018.6
20260505020459 61 216 0.0 2.0 0.00 0.00 0.00 45 1018.7
20260505015459 61 175 0.0 2.0 0.00 0.00 0.00 47 1018.8
20260505014458 60 126 1.0 3.0 0.00 0.00 0.00 46 1018.4
20260505013458 59 225 0.0 3.0 0.00 0.00 0.00 48 1018.4
20260505012457 58 185 0.0 1.0 0.00 0.00 0.00 50 1018.7
20260505011457 57 87 1.0 3.0 0.00 0.00 0.00 52 1018.8
20260505010457 57 225 0.0 3.0 0.00 0.00 0.00 54 1018.8
20260505005457 56 252 2.0 2.0 0.00 0.00 0.00 60 1018.9
20260505004456 55 245 1.0 2.0 0.00 0.00 0.00 59 1018.9
20260505003456 55 236 1.0 3.0 0.00 0.00 0.00 60 1018.8
20260505002455 54 211 0.0 3.0 0.00 0.00 0.00 62 1018.6
20260505001455 54 238 1.0 3.0 0.00 0.00 0.00 63 1018.8
20260505000455 53 225 2.0 3.0 0.00 0.00 0.00 63 1018.7
20260504235454 53 220 2.0 4.0 0.00 0.00 0.00 67 1018.7
20260504234454 53 270 3.0 4.0 0.00 0.00 0.00 69 1018.6
20260504233454 52 225 1.0 3.0 0.00 0.00 0.00 74 1018.7
20260504232453 51 229 1.0 3.0 0.00 0.00 0.00 77 1018.9
20260504231453 51 218 0.0 3.0 0.00 0.00 0.00 77 1018.7
20260504230453 50 211 1.0 1.0 0.00 0.00 0.00 81 1018.5
20260504225452 50 235 1.0 2.0 0.00 0.00 0.00 85 1018.3
20260504224452 49 265 2.0 3.0 0.00 0.00 0.00 86 1018.4
20260504223452 48 225 1.0 2.0 0.00 0.00 0.00 88 1018.4
20260504222451 48 189 1.0 1.0 0.00 0.00 0.00 90 1018.4
20260504221451 47 225 1.0 2.0 0.00 0.00 0.00 91 1018.2
20260504220450 47 225 1.0 1.0 0.00 0.00 0.00 90 1018.2
20260504215450 47 218 0.0 2.0 0.00 0.00 0.00 90 1018.0
20260504214450 47 225 0.0 2.0 0.00 0.00 0.00 90 1017.9
20260504213450 46 225 0.0 1.0 0.00 0.00 0.00 92 1017.9
20260504212449 45 225 0.0 0.0 0.00 0.00 0.00 92 1017.6
20260504211449 45 225 0.0 0.0 0.00 0.00 0.00 94 1017.3
20260504210448 44 180 0.0 0.0 0.00 0.00 0.00 94 1017.1
20260504110427 56 148 0.0 1.0 0.00 0.00 0.22 76 1007.1
20260504100422 60 225 0.0 1.0 0.00 0.00 0.22 63 1004.7
20260504081418 65 245 1.0 7.0 0.00 0.00 0.22 53 1002.6
20260504080418 67 256 3.0 8.0 0.00 0.00 0.22 51 1002.5